Time,TemperatureF,DewpointF,PressureIn,WindDirection,WindDirectionDegrees,WindSpeedMPH,WindSpeedGustMPH,Humidity,HourlyPrecipIn,Conditions,Clouds,dailyrainin,SoftwareType,DateUTC
2013-11-05 00:02:00,30.4,28.1,30.23,NNE,12,2.3,2.3,91,0.00,CLR,,0.00,WeatherDisplay:10.37,2013-11-05 06:02:00,
2013-11-05 00:07:00,30.2,27.9,30.22,NNE,12,2.3,2.3,91,0.00,CLR,,0.00,WeatherDisplay:10.37,2013-11-05 06:07:00,
2013-11-05 00:12:00,30.2,27.9,30.22,North,5,2.3,2.3,91,0.00,CLR,,0.00,WeatherDisplay:10.37,2013-11-05 06:12:00,
2013-11-05 00:17:00,30.2,27.9,30.22,North,5,2.3,2.3,91,0.00,CLR,,0.00,WeatherDisplay:10.37,2013-11-05 06:17:00,
2013-11-05 00:22:00,30.2,27.9,30.22,North,5,1.2,1.2,91,0.00,CLR,,0.00,WeatherDisplay:10.37,2013-11-05 06:22:00,
2013-11-05 00:27:00,30.2,27.9,30.23,North,5,2.3,2.3,91,0.00,CLR,,0.00,WeatherDisplay:10.37,2013-11-05 06:27:00,
2013-11-05 00:32:00,30.1,27.8,30.23,North,5,2.3,2.3,91,0.00,CLR,,0.00,WeatherDisplay:10.37,2013-11-05 06:32:00,
2013-11-05 00:37:00,30.0,27.7,30.23,North,5,2.3,2.3,91,0.00,CLR,,0.00,WeatherDisplay:10.37,2013-11-05 06:37:00,
2013-11-05 00:42:00,30.1,27.8,30.23,North,5,1.2,1.2,91,0.00,CLR,,0.00,WeatherDisplay:10.37,2013-11-05 06:42:00,
2013-11-05 00:47:00,30.2,27.9,30.23,North,5,2.3,2.3,91,0.00,CLR,,0.00,WeatherDisplay:10.37,2013-11-05 06:47:00,
2013-11-05 00:52:00,30.3,28.0,30.23,North,5,1.2,1.2,91,0.00,CLR,,0.00,WeatherDisplay:10.37,2013-11-05 06:52:00,
2013-11-05 00:57:00,30.4,28.1,30.23,North,5,1.2,1.2,91,0.00,CLR,,0.00,WeatherDisplay:10.37,2013-11-05 06:57:00,
2013-11-05 01:02:00,30.5,27.9,30.23,North,5,1.2,1.2,90,0.00,CLR,,0.00,WeatherDisplay:10.37,2013-11-05 07:02:00,
2013-11-05 01:07:00,30.5,27.9,30.23,North,5,1.2,1.2,90,0.00,CLR,,0.00,WeatherDisplay:10.37,2013-11-05 07:07:00,
2013-11-05 01:12:00,30.3,27.4,30.23,North,5,1.2,1.2,89,0.00,CLR,,0.00,WeatherDisplay:10.37,2013-11-05 07:12:00,
2013-11-05 01:17:00,30.4,27.8,30.23,North,5,0.0,0.0,90,0.00,CLR,,0.00,WeatherDisplay:10.37,2013-11-05 07:17:00,
2013-11-05 01:22:00,30.6,28.0,30.23,North,5,0.0,0.0,90,0.00,CLR,,0.00,WeatherDisplay:10.37,2013-11-05 07:22:00,
2013-11-05 01:27:00,30.8,28.2,30.23,North,5,0.0,0.0,90,0.00,CLR,,0.00,WeatherDisplay:10.37,2013-11-05 07:27:00,
2013-11-05 01:32:00,31.1,28.5,30.23,North,5,0.0,0.0,90,0.00,CLR,,0.00,WeatherDisplay:10.37,2013-11-05 07:32:00,
2013-11-05 01:37:00,31.2,28.3,30.23,North,5,0.0,0.0,89,0.00,CLR,,0.00,WeatherDisplay:10.37,2013-11-05 07:37:00,
2013-11-05 01:42:00,31.8,28.9,30.23,North,5,0.0,0.0,89,0.00,CLR,,0.00,WeatherDisplay:10.37,2013-11-05 07:42:00,
2013-11-05 01:47:00,32.7,29.5,30.23,North,355,2.3,2.3,88,0.00,CLR,,0.00,WeatherDisplay:10.37,2013-11-05 07:47:00,
2013-11-05 01:52:00,33.3,29.6,30.23,North,5,1.2,1.2,86,0.00,CLR,,0.00,WeatherDisplay:10.37,2013-11-05 07:52:00,
2013-11-05 01:57:00,33.3,29.3,30.23,North,5,1.2,1.2,85,0.00,CLR,,0.00,WeatherDisplay:10.37,2013-11-05 07:57:00,
2013-11-05 02:02:00,33.2,29.2,30.23,North,355,2.3,2.3,85,0.00,CLR,,0.00,WeatherDisplay:10.37,2013-11-05 08:02:00,
2013-11-05 02:07:00,33.2,29.2,30.22,North,355,1.2,1.2,85,0.00,CLR,,0.00,WeatherDisplay:10.37,2013-11-05 08:07:00,
2013-11-05 02:12:00,33.4,29.4,30.22,North,355,1.2,1.2,85,0.00,CLR,,0.00,WeatherDisplay:10.37,2013-11-05 08:12:00,
2013-11-05 02:17:00,33.7,29.7,30.22,West,270,3.5,3.5,85,0.00,CLR,,0.00,WeatherDisplay:10.37,2013-11-05 08:17:00,
2013-11-05 02:22:00,33.7,29.4,30.22,West,271,2.3,2.3,84,0.00,CLR,,0.00,WeatherDisplay:10.37,2013-11-05 08:22:00,
2013-11-05 02:27:00,33.8,29.5,30.23,West,271,1.2,1.2,84,0.00,CLR,,0.00,WeatherDisplay:10.37,2013-11-05 08:27:00,
2013-11-05 02:32:00,33.7,29.4,30.22,West,272,2.3,2.3,84,0.00,CLR,,0.00,WeatherDisplay:10.37,2013-11-05 08:32:00,
2013-11-05 02:37:00,33.7,29.4,30.22,West,272,2.3,2.3,84,0.00,CLR,,0.00,WeatherDisplay:10.37,2013-11-05 08:37:00,
2013-11-05 02:42:00,33.4,29.4,30.23,West,273,2.3,2.3,85,0.00,CLR,,0.00,WeatherDisplay:10.37,2013-11-05 08:42:00,
2013-11-05 02:47:00,33.4,29.1,30.23,SW,231,2.3,2.3,84,0.00,CLR,,0.00,WeatherDisplay:10.37,2013-11-05 08:47:00,
2013-11-05 02:52:00,33.5,29.5,30.23,SW,231,2.0,2.0,85,0.00,CLR,,0.00,WeatherDisplay:10.37,2013-11-05 08:52:00,
2013-11-05 02:57:00,33.5,29.5,30.22,SW,232,1.2,1.2,85,0.00,CLR,,0.00,WeatherDisplay:10.37,2013-11-05 08:57:00,
2013-11-05 03:02:00,33.6,29.9,30.22,SW,231,1.2,1.2,86,0.00,CLR,,0.00,WeatherDisplay:10.37,2013-11-05 09:02:00,
2013-11-05 03:07:00,33.8,29.8,30.22,SW,231,1.2,1.2,85,0.00,CLR,,0.00,WeatherDisplay:10.37,2013-11-05 09:07:00,
2013-11-05 03:12:00,34.0,30.0,30.21,SW,232,2.3,2.3,85,0.00,CLR,,0.00,WeatherDisplay:10.37,2013-11-05 09:12:00,
2013-11-05 03:17:00,33.9,29.9,30.21,SW,232,2.3,2.3,85,0.00,CLR,,0.00,WeatherDisplay:10.37,2013-11-05 09:17:00,
2013-11-05 03:22:00,34.1,30.1,30.21,North,9,2.3,2.3,85,0.00,CLR,,0.00,WeatherDisplay:10.37,2013-11-05 09:22:00,
2013-11-05 03:27:00,34.4,30.4,30.21,SSE,162,2.3,2.3,85,0.00,CLR,,0.00,WeatherDisplay:10.37,2013-11-05 09:27:00,
2013-11-05 03:32:00,34.9,30.8,30.21,ESE,117,1.2,1.2,85,0.00,CLR,,0.00,WeatherDisplay:10.37,2013-11-05 09:32:00,
2013-11-05 03:37:00,35.4,31.0,30.21,NE,52,2.3,2.3,84,0.00,CLR,,0.00,WeatherDisplay:10.37,2013-11-05 09:37:00,
2013-11-05 03:42:00,35.9,31.2,30.21,NNE,20,1.2,0.0,83,0.00,CLR,,0.00,WeatherDisplay:10.37,2013-11-05 09:42:00,
2013-11-05 03:47:00,36.3,31.3,30.21,East,90,2.3,2.3,82,0.00,CLR,,0.00,WeatherDisplay:10.37,2013-11-05 09:47:00,
2013-11-05 03:52:00,36.8,31.8,30.22,NNW,339,3.5,3.5,82,0.00,CLR,,0.00,WeatherDisplay:10.37,2013-11-05 09:52:00,
2013-11-05 03:57:00,37.2,31.9,30.21,NNE,19,2.3,2.3,81,0.00,CLR,,0.00,WeatherDisplay:10.37,2013-11-05 09:57:00,
2013-11-05 04:02:00,37.4,32.1,30.22,NNE,15,2.0,2.0,81,0.00,CLR,,0.00,WeatherDisplay:10.37,2013-11-05 10:02:00,
2013-11-05 04:07:00,37.6,32.0,30.22,NNE,19,3.5,3.5,80,0.00,CLR,,0.00,WeatherDisplay:10.37,2013-11-05 10:07:00,
2013-11-05 04:12:00,37.8,32.2,30.22,NNE,20,2.3,2.3,80,0.00,CLR,,0.00,WeatherDisplay:10.37,2013-11-05 10:12:00,
2013-11-05 04:17:00,37.9,32.6,30.22,NNE,13,2.3,2.3,81,0.00,CLR,,0.00,WeatherDisplay:10.37,2013-11-05 10:17:00,
2013-11-05 04:23:00,38.1,32.5,30.22,NE,40,2.3,2.3,80,0.00,CLR,,0.00,WeatherDisplay:10.37,2013-11-05 10:23:00,
2013-11-05 04:28:00,38.2,32.6,30.22,NE,47,3.5,3.5,80,0.00,CLR,,0.00,WeatherDisplay:10.37,2013-11-05 10:28:00,
2013-11-05 04:33:00,38.3,32.4,30.22,NE,40,1.2,1.2,79,0.00,CLR,,0.00,WeatherDisplay:10.37,2013-11-05 10:33:00,
2013-11-05 04:38:00,38.4,32.8,30.22,NE,38,2.3,2.3,80,0.00,CLR,,0.00,WeatherDisplay:10.37,2013-11-05 10:38:00,
2013-11-05 04:43:00,38.5,32.6,30.22,NNE,26,3.5,3.5,79,0.00,CLR,,0.00,WeatherDisplay:10.37,2013-11-05 10:43:00,
2013-11-05 04:48:00,38.6,32.6,30.21,NE,41,2.3,2.3,79,0.00,CLR,,0.00,WeatherDisplay:10.37,2013-11-05 10:48:00,
2013-11-05 04:53:00,38.7,32.7,30.21,North,350,2.3,2.3,79,0.00,CLR,,0.00,WeatherDisplay:10.37,2013-11-05 10:53:00,
2013-11-05 04:58:00,38.7,32.4,30.21,NNE,23,4.6,4.6,78,0.00,CLR,,0.00,WeatherDisplay:10.37,2013-11-05 10:58:00,
2013-11-05 05:03:00,38.8,32.8,30.21,NNE,32,4.0,4.0,79,0.00,CLR,,0.00,WeatherDisplay:10.37,2013-11-05 11:03:00,
2013-11-05 05:08:00,38.8,32.8,30.20,NE,35,4.6,4.6,79,0.00,CLR,,0.00,WeatherDisplay:10.37,2013-11-05 11:08:00,
2013-11-05 05:13:00,38.8,32.8,30.20,North,360,4.6,4.6,79,0.00,CLR,,0.00,WeatherDisplay:10.37,2013-11-05 11:13:00,
2013-11-05 05:18:00,38.9,32.9,30.19,NE,35,3.5,3.5,79,0.00,CLR,,0.00,WeatherDisplay:10.37,2013-11-05 11:18:00,
2013-11-05 05:23:00,38.9,32.9,30.19,NNE,22,4.6,4.6,79,0.00,CLR,,0.00,WeatherDisplay:10.37,2013-11-05 11:23:00,
2013-11-05 05:28:00,39.0,33.4,30.19,NNE,26,4.6,4.6,80,0.00,CLR,,0.00,WeatherDisplay:10.37,2013-11-05 11:28:00,
2013-11-05 05:33:00,39.1,33.5,30.19,NE,38,3.5,3.5,80,0.00,CLR,,0.00,WeatherDisplay:10.37,2013-11-05 11:33:00,
2013-11-05 05:38:00,39.2,33.5,30.18,NE,40,5.0,5.0,80,0.00,CLR,,0.00,WeatherDisplay:10.37,2013-11-05 11:38:00,
2013-11-05 05:43:00,39.3,33.6,30.18,ENE,59,6.0,6.0,80,0.00,CLR,,0.00,WeatherDisplay:10.37,2013-11-05 11:43:00,
2013-11-05 05:48:00,39.4,33.7,30.18,North,5,5.0,5.0,80,0.00,CLR,,0.00,WeatherDisplay:10.37,2013-11-05 11:48:00,
2013-11-05 05:53:00,39.4,33.7,30.18,NE,34,3.5,3.5,80,0.00,CLR,,0.00,WeatherDisplay:10.37,2013-11-05 11:53:00,
2013-11-05 05:58:00,39.5,34.2,30.18,North,360,5.0,5.0,81,0.00,CLR,,0.00,WeatherDisplay:10.37,2013-11-05 11:58:00,
2013-11-05 06:03:00,39.7,34.3,30.18,North,5,4.0,4.0,81,0.00,CLR,,0.00,WeatherDisplay:10.37,2013-11-05 12:03:00,
2013-11-05 06:08:00,39.8,34.4,30.18,North,5,3.0,3.0,81,0.00,CLR,,0.00,WeatherDisplay:10.37,2013-11-05 12:08:00,
2013-11-05 06:13:00,40.0,34.6,30.18,North,350,3.5,3.5,81,0.00,CLR,,0.00,WeatherDisplay:10.37,2013-11-05 12:13:00,
2013-11-05 06:18:00,40.2,34.5,30.18,NNE,19,3.5,3.5,80,0.00,CLR,,0.00,WeatherDisplay:10.37,2013-11-05 12:18:00,
2013-11-05 06:23:00,40.4,34.7,30.18,NNE,31,3.5,3.5,80,0.00,CLR,,0.00,WeatherDisplay:10.37,2013-11-05 12:23:00,
2013-11-05 06:28:00,40.5,34.5,30.18,East,101,4.6,4.6,79,0.00,CLR,,0.00,WeatherDisplay:10.37,2013-11-05 12:28:00,
2013-11-05 06:33:00,40.7,34.7,30.18,NNE,32,2.3,2.3,79,0.00,CLR,,0.00,WeatherDisplay:10.37,2013-11-05 12:33:00,
2013-11-05 06:38:00,40.7,34.7,30.18,NE,41,2.3,2.3,79,0.00,CLR,,0.00,WeatherDisplay:10.37,2013-11-05 12:38:00,
2013-11-05 06:43:00,40.8,35.1,30.18,NE,34,3.5,3.5,80,0.00,CLR,,0.00,WeatherDisplay:10.37,2013-11-05 12:43:00,
2013-11-05 06:48:00,40.9,34.9,30.18,WSW,238,5.8,5.8,79,0.00,CLR,,0.00,WeatherDisplay:10.37,2013-11-05 12:48:00,
2013-11-05 06:53:00,41.1,35.1,30.18,ENE,77,5.0,5.0,79,0.00,CLR,,0.00,WeatherDisplay:10.37,2013-11-05 12:53:00,
2013-11-05 06:58:00,41.2,34.9,30.18,East,83,5.8,5.8,78,0.00,CLR,,0.00,WeatherDisplay:10.37,2013-11-05 12:58:00,
2013-11-05 07:03:00,41.3,35.0,30.18,East,79,2.3,2.3,78,0.00,CLR,,0.00,WeatherDisplay:10.37,2013-11-05 13:03:00,
2013-11-05 07:08:00,41.3,35.0,30.17,East,90,3.5,3.5,78,0.00,CLR,,0.00,WeatherDisplay:10.37,2013-11-05 13:08:00,
2013-11-05 07:13:00,41.4,35.1,30.18,ENE,67,6.9,6.9,78,0.00,CLR,,0.00,WeatherDisplay:10.37,2013-11-05 13:13:00,
2013-11-05 07:18:00,41.4,35.1,30.17,ENE,75,4.6,4.6,78,0.00,CLR,,0.00,WeatherDisplay:10.37,2013-11-05 13:18:00,
2013-11-05 07:23:00,41.5,35.2,30.17,ENE,59,4.6,4.6,78,0.00,CLR,,0.00,WeatherDisplay:10.37,2013-11-05 13:23:00,
2013-11-05 07:28:00,41.6,35.2,30.17,NE,53,4.0,5.2,78,0.00,CLR,,0.00,WeatherDisplay:10.37,2013-11-05 13:28:00,
2013-11-05 07:33:00,41.6,35.2,30.17,ENE,57,3.5,3.5,78,0.00,CLR,,0.00,WeatherDisplay:10.37,2013-11-05 13:33:00,
2013-11-05 07:38:00,41.5,35.2,30.16,NNE,28,9.2,9.2,78,0.00,CLR,,0.00,WeatherDisplay:10.37,2013-11-05 13:38:00,
2013-11-05 07:43:00,41.5,35.5,30.16,NW,313,3.0,3.0,79,0.00,CLR,,0.00,WeatherDisplay:10.37,2013-11-05 13:43:00,
2013-11-05 07:48:00,41.4,35.7,30.16,NE,54,6.0,6.0,80,0.00,CLR,,0.00,WeatherDisplay:10.37,2013-11-05 13:48:00,
2013-11-05 07:53:00,41.3,35.6,30.15,NNE,26,9.2,9.2,80,0.00,CLR,,0.00,WeatherDisplay:10.37,2013-11-05 13:53:00,
2013-11-05 07:58:00,41.2,35.8,30.16,NE,51,8.1,8.1,81,0.00,CLR,,0.00,WeatherDisplay:10.37,2013-11-05 13:58:00,
2013-11-05 08:03:00,41.2,36.1,30.16,ENE,63,5.8,5.8,82,0.00,CLR,,0.00,WeatherDisplay:10.37,2013-11-05 14:03:00,
2013-11-05 08:08:00,41.2,36.1,30.16,NNE,29,4.6,4.6,82,0.00,CLR,,0.00,WeatherDisplay:10.37,2013-11-05 14:08:00,
2013-11-05 08:13:00,41.2,36.1,30.15,ENE,57,5.8,5.8,82,0.00,CLR,,0.00,WeatherDisplay:10.37,2013-11-05 14:13:00,
2013-11-05 08:18:00,41.3,36.5,30.15,NNW,344,8.1,8.1,83,0.00,CLR,,0.00,WeatherDisplay:10.37,2013-11-05 14:18:00,
2013-11-05 08:23:00,41.3,36.5,30.15,North,10,3.5,3.5,83,0.00,CLR,,0.00,WeatherDisplay:10.37,2013-11-05 14:23:00,
2013-11-05 08:28:00,41.2,36.4,30.14,ENE,76,4.6,4.6,83,0.00,CLR,,0.00,WeatherDisplay:10.37,2013-11-05 14:28:00,
2013-11-05 08:33:00,41.2,36.4,30.14,East,89,3.5,3.5,83,0.00,CLR,,0.00,WeatherDisplay:10.37,2013-11-05 14:33:00,
2013-11-05 08:38:00,41.2,36.7,30.13,NNE,13,3.5,3.5,84,0.00,CLR,,0.00,WeatherDisplay:10.37,2013-11-05 14:38:00,
2013-11-05 08:43:00,41.2,36.7,30.13,ENE,57,10.4,10.4,84,0.00,CLR,,0.00,WeatherDisplay:10.37,2013-11-05 14:43:00,
2013-11-05 08:48:00,41.1,36.9,30.13,ENE,73,9.2,9.2,85,0.00,CLR,,0.00,WeatherDisplay:10.37,2013-11-05 14:48:00,
2013-11-05 08:53:00,40.9,37.0,30.12,NE,44,6.9,6.9,86,0.00,CLR,,0.00,WeatherDisplay:10.37,2013-11-05 14:53:00,
2013-11-05 08:58:00,40.7,37.1,30.12,NE,51,11.5,11.5,87,0.00,CLR,,0.00,WeatherDisplay:10.37,2013-11-05 14:58:00,
2013-11-05 09:03:00,40.6,37.3,30.13,NE,46,7.0,7.0,88,0.00,CLR,,0.00,WeatherDisplay:10.37,2013-11-05 15:03:00,
2013-11-05 09:08:00,40.4,37.4,30.13,SE,128,8.1,8.1,89,0.01,RA,,0.01,WeatherDisplay:10.37,2013-11-05 15:08:00,
2013-11-05 09:13:00,40.2,37.5,30.14,NNE,14,8.1,8.1,90,0.01,RA,,0.01,WeatherDisplay:10.37,2013-11-05 15:13:00,
2013-11-05 09:18:00,40.1,37.4,30.15,WNW,300,3.5,3.5,90,0.02,RA,,0.03,WeatherDisplay:10.37,2013-11-05 15:18:00,
2013-11-05 09:23:00,40.0,37.6,30.15,NE,49,5.8,5.8,91,0.04,RA,,0.04,WeatherDisplay:10.37,2013-11-05 15:23:00,
2013-11-05 09:28:00,39.8,37.7,30.15,NNW,343,3.5,3.5,92,0.06,RA,,0.06,WeatherDisplay:10.37,2013-11-05 15:28:00,
2013-11-05 09:33:00,39.7,37.8,30.15,NNW,339,5.0,5.0,93,0.08,RA,,0.08,WeatherDisplay:10.37,2013-11-05 15:33:00,
2013-11-05 09:38:00,39.6,38.0,30.15,NW,310,3.5,3.5,94,0.10,RA,,0.10,WeatherDisplay:10.37,2013-11-05 15:38:00,
2013-11-05 09:43:00,39.5,37.9,30.15,WNW,286,2.3,2.3,94,0.11,RA,,0.11,WeatherDisplay:10.37,2013-11-05 15:43:00,
2013-11-05 09:48:00,39.4,37.8,30.16,WNW,289,8.1,8.1,94,0.14,RA,,0.14,WeatherDisplay:10.37,2013-11-05 15:48:00,
2013-11-05 09:53:00,39.3,37.7,30.16,North,355,3.5,3.5,94,0.17,RA,,0.17,WeatherDisplay:10.37,2013-11-05 15:53:00,
2013-11-05 09:59:00,39.2,37.9,30.15,NNW,329,4.6,4.6,95,0.20,RA,,0.20,WeatherDisplay:10.37,2013-11-05 15:59:00,
2013-11-05 10:04:00,39.0,37.7,30.15,NNW,345,5.8,5.8,95,0.22,RA,,0.22,WeatherDisplay:10.37,2013-11-05 16:04:00,
2013-11-05 10:09:00,38.9,37.6,30.14,NNE,28,4.6,4.6,95,0.23,RA,,0.24,WeatherDisplay:10.37,2013-11-05 16:09:00,
2013-11-05 10:14:00,38.8,37.5,30.14,NNW,332,4.6,4.6,95,0.24,RA,,0.25,WeatherDisplay:10.37,2013-11-05 16:14:00,
2013-11-05 10:19:00,38.8,37.5,30.13,NE,49,5.0,5.0,95,0.23,RA,,0.26,WeatherDisplay:10.37,2013-11-05 16:19:00,
2013-11-05 10:24:00,38.7,37.4,30.13,NNW,340,9.2,9.2,95,0.22,RA,,0.27,WeatherDisplay:10.37,2013-11-05 16:24:00,
2013-11-05 10:29:00,38.8,37.5,30.12,NNW,331,3.5,3.5,95,0.22,RA,,0.28,WeatherDisplay:10.37,2013-11-05 16:29:00,
2013-11-05 10:34:00,38.7,37.4,30.12,North,355,8.1,8.1,95,0.21,RA,,0.29,WeatherDisplay:10.37,2013-11-05 16:34:00,
2013-11-05 10:39:00,38.7,37.4,30.12,NNW,340,9.2,9.2,95,0.20,RA,,0.30,WeatherDisplay:10.37,2013-11-05 16:39:00,
2013-11-05 10:44:00,38.7,37.4,30.11,NNW,333,8.1,8.1,95,0.20,RA,,0.32,WeatherDisplay:10.37,2013-11-05 16:44:00,
2013-11-05 10:49:00,38.7,37.7,30.11,North,5,5.8,5.8,96,0.19,RA,,0.33,WeatherDisplay:10.37,2013-11-05 16:49:00,
2013-11-05 10:54:00,38.6,37.6,30.11,North,11,11.5,11.5,96,0.17,RA,,0.34,WeatherDisplay:10.37,2013-11-05 16:54:00,
2013-11-05 10:59:00,38.6,37.6,30.11,NNE,27,9.2,9.2,96,0.15,RA,,0.35,WeatherDisplay:10.37,2013-11-05 16:59:00,
2013-11-05 11:04:00,38.6,37.6,30.11,North,9,11.5,11.5,96,0.15,RA,,0.37,WeatherDisplay:10.37,2013-11-05 17:04:00,
2013-11-05 11:09:00,38.6,37.6,30.10,North,355,9.2,9.2,96,0.14,RA,,0.38,WeatherDisplay:10.37,2013-11-05 17:09:00,
2013-11-05 11:14:00,38.5,37.5,30.10,NE,56,9.2,9.2,96,0.15,RA,,0.40,WeatherDisplay:10.37,2013-11-05 17:14:00,
2013-11-05 11:19:00,38.5,37.5,30.09,North,355,6.9,6.9,96,0.15,RA,,0.41,WeatherDisplay:10.37,2013-11-05 17:19:00,
2013-11-05 11:24:00,38.5,37.5,30.08,NNE,22,7.0,7.0,96,0.16,RA,,0.43,WeatherDisplay:10.37,2013-11-05 17:24:00,
2013-11-05 11:29:00,38.5,37.5,30.09,North,5,8.1,8.1,96,0.16,RA,,0.44,WeatherDisplay:10.37,2013-11-05 17:29:00,
2013-11-05 11:34:00,38.4,37.4,30.08,NNE,30,14.0,14.0,96,0.18,RA,,0.47,WeatherDisplay:10.37,2013-11-05 17:34:00,
2013-11-05 11:39:00,38.4,37.4,30.07,NW,323,10.4,10.4,96,0.19,RA,,0.49,WeatherDisplay:10.37,2013-11-05 17:39:00,
2013-11-05 11:44:00,38.4,37.4,30.06,NW,304,13.8,13.8,96,0.19,RA,,0.50,WeatherDisplay:10.37,2013-11-05 17:44:00,
2013-11-05 11:49:00,38.4,37.4,30.05,NW,306,11.5,11.5,96,0.19,RA,,0.52,WeatherDisplay:10.37,2013-11-05 17:49:00,
2013-11-05 11:54:00,38.5,37.5,30.05,North,355,8.1,8.1,96,0.19,RA,,0.53,WeatherDisplay:10.37,2013-11-05 17:54:00,
2013-11-05 11:59:00,38.5,37.5,30.05,NE,36,11.5,11.5,96,0.19,RA,,0.54,WeatherDisplay:10.37,2013-11-05 17:59:00,
2013-11-05 12:04:00,38.6,37.6,30.05,WSW,239,4.6,4.6,96,0.19,RA,,0.56,WeatherDisplay:10.37,2013-11-05 18:04:00,
2013-11-05 12:09:00,38.6,37.6,30.05,North,5,11.5,11.5,96,0.19,RA,,0.57,WeatherDisplay:10.37,2013-11-05 18:09:00,
2013-11-05 12:14:00,38.7,37.7,30.04,North,11,12.7,12.7,96,0.18,RA,,0.58,WeatherDisplay:10.37,2013-11-05 18:14:00,
2013-11-05 12:19:00,38.7,37.7,30.04,NNE,16,8.1,8.1,96,0.18,RA,,0.59,WeatherDisplay:10.37,2013-11-05 18:19:00,
2013-11-05 12:24:00,38.8,37.8,30.03,NE,55,11.5,11.5,96,0.16,RA,,0.59,WeatherDisplay:10.37,2013-11-05 18:24:00,
2013-11-05 12:29:00,39.0,38.0,30.03,North,5,11.5,11.5,96,0.16,RA,,0.60,WeatherDisplay:10.37,2013-11-05 18:29:00,
2013-11-05 12:34:00,39.1,38.1,30.03,NNE,28,15.0,15.0,96,0.14,RA,,0.61,WeatherDisplay:10.37,2013-11-05 18:34:00,
2013-11-05 12:39:00,39.1,38.1,30.03,NNW,336,6.0,6.0,96,0.12,RA,,0.61,WeatherDisplay:10.37,2013-11-05 18:39:00,
2013-11-05 12:44:00,39.1,38.1,30.03,NNE,28,6.9,6.9,96,0.12,RA,,0.62,WeatherDisplay:10.37,2013-11-05 18:44:00,
2013-11-05 12:49:00,39.1,38.1,30.02,NE,36,8.1,8.1,96,0.12,RA,,0.64,WeatherDisplay:10.37,2013-11-05 18:49:00,
2013-11-05 12:54:00,39.1,38.1,30.02,NNW,335,5.8,5.8,96,0.12,RA,,0.65,WeatherDisplay:10.37,2013-11-05 18:54:00,
2013-11-05 12:59:00,39.2,38.2,30.01,NNE,31,8.1,8.1,96,0.12,RA,,0.66,WeatherDisplay:10.37,2013-11-05 18:59:00,
2013-11-05 13:04:00,39.2,38.2,30.01,NNE,28,11.5,11.5,96,0.11,RA,,0.68,WeatherDisplay:10.37,2013-11-05 19:04:00,
2013-11-05 13:09:00,39.3,38.3,30.00,North,5,10.0,10.0,96,0.12,RA,,0.69,WeatherDisplay:10.37,2013-11-05 19:09:00,
2013-11-05 13:14:00,39.3,38.3,30.00,NNE,22,11.5,11.5,96,0.12,RA,,0.70,WeatherDisplay:10.37,2013-11-05 19:14:00,
2013-11-05 13:19:00,39.5,38.5,30.00,NE,38,12.7,12.7,96,0.11,RA,,0.70,WeatherDisplay:10.37,2013-11-05 19:19:00,
2013-11-05 13:24:00,39.5,38.5,29.99,NNE,30,11.5,11.5,96,0.11,,,0.70,WeatherDisplay:10.37,2013-11-05 19:24:00,
2013-11-05 13:29:00,39.6,38.6,29.99,NE,53,10.4,10.4,96,0.10,CLR,,0.70,WeatherDisplay:10.37,2013-11-05 19:29:00,
2013-11-05 13:34:00,39.7,38.7,29.98,ENE,72,5.8,5.8,96,0.10,RA,,0.71,WeatherDisplay:10.37,2013-11-05 19:34:00,
2013-11-05 13:39:00,39.7,38.7,29.98,NNE,12,10.0,10.0,96,0.10,RA,,0.71,WeatherDisplay:10.37,2013-11-05 19:39:00,
2013-11-05 13:44:00,39.7,38.7,29.98,NNE,15,17.3,17.3,96,0.09,CLR,,0.71,WeatherDisplay:10.37,2013-11-05 19:44:00,
2013-11-05 13:49:00,39.7,38.7,29.97,NNW,344,11.5,11.5,96,0.07,CLR,,0.71,WeatherDisplay:10.37,2013-11-05 19:49:00,
2013-11-05 13:54:00,39.7,38.7,29.97,NNE,25,4.6,5.1,96,0.06,CLR,,0.71,WeatherDisplay:10.37,2013-11-05 19:54:00,
2013-11-05 13:59:00,39.7,38.7,29.98,North,360,12.7,12.7,96,0.05,CLR,,0.71,WeatherDisplay:10.37,2013-11-05 19:59:00,
2013-11-05 14:04:00,39.7,38.7,29.97,NNW,342,8.1,8.1,96,0.04,CLR,,0.71,WeatherDisplay:10.37,2013-11-05 20:04:00,
2013-11-05 14:09:00,39.7,38.7,29.97,NNW,338,5.8,5.8,96,0.02,CLR,,0.71,WeatherDisplay:10.37,2013-11-05 20:09:00,
2013-11-05 14:14:00,39.7,38.7,29.97,NW,315,11.5,11.5,96,0.02,RA,,0.72,WeatherDisplay:10.37,2013-11-05 20:14:00,
2013-11-05 14:19:00,39.7,38.7,29.97,North,355,8.0,8.0,96,0.02,RA,,0.72,WeatherDisplay:10.37,2013-11-05 20:19:00,
2013-11-05 14:24:00,39.7,38.7,29.97,NNW,340,5.8,6.0,96,0.02,,,0.72,WeatherDisplay:10.37,2013-11-05 20:24:00,
2013-11-05 14:29:00,39.6,38.6,29.96,NE,39,9.2,9.2,96,0.02,CLR,,0.72,WeatherDisplay:10.37,2013-11-05 20:29:00,
2013-11-05 14:34:00,39.6,38.6,29.96,NE,48,9.0,9.0,96,0.01,CLR,,0.72,WeatherDisplay:10.37,2013-11-05 20:34:00,
2013-11-05 14:39:00,39.6,38.6,29.96,NE,42,7.0,7.0,96,0.01,CLR,,0.72,WeatherDisplay:10.37,2013-11-05 20:39:00,
2013-11-05 14:44:00,39.6,38.6,29.96,NNW,342,12.7,12.7,96,0.01,CLR,,0.72,WeatherDisplay:10.37,2013-11-05 20:44:00,
2013-11-05 14:49:00,39.6,38.6,29.96,NNE,24,12.7,12.7,96,0.01,CLR,,0.73,WeatherDisplay:10.37,2013-11-05 20:49:00,
2013-11-05 14:54:00,39.5,38.5,29.96,NNW,344,11.5,11.5,96,0.04,RA,,0.75,WeatherDisplay:10.37,2013-11-05 20:54:00,
2013-11-05 14:59:00,39.5,38.5,29.96,NNE,14,5.8,5.8,96,0.04,RA,,0.75,WeatherDisplay:10.37,2013-11-05 20:59:00,
2013-11-05 15:04:00,39.5,38.5,29.96,NNW,327,9.2,9.2,96,0.05,RA,,0.76,WeatherDisplay:10.37,2013-11-05 21:04:00,
2013-11-05 15:09:00,39.4,38.4,29.97,NNW,346,9.2,9.2,96,0.06,RA,,0.77,WeatherDisplay:10.37,2013-11-05 21:09:00,
2013-11-05 15:14:00,39.2,38.2,29.97,NNW,332,9.2,9.2,96,0.05,RA,,0.77,WeatherDisplay:10.37,2013-11-05 21:14:00,
2013-11-05 15:19:00,39.1,38.1,29.99,North,350,9.2,9.2,96,0.06,RA,,0.78,WeatherDisplay:10.37,2013-11-05 21:19:00,
2013-11-05 15:25:00,38.9,37.9,30.00,NW,314,10.4,10.4,96,0.07,RA,,0.79,WeatherDisplay:10.37,2013-11-05 21:25:00,
2013-11-05 15:30:00,38.9,37.9,29.99,NNW,347,8.1,8.1,96,0.08,RA,,0.80,WeatherDisplay:10.37,2013-11-05 21:30:00,
2013-11-05 15:35:00,38.8,37.8,29.99,NNW,331,9.2,9.2,96,0.09,RA,,0.81,WeatherDisplay:10.37,2013-11-05 21:35:00,
2013-11-05 15:40:00,38.7,37.7,29.98,NNW,338,11.5,11.5,96,0.09,RA,,0.81,WeatherDisplay:10.37,2013-11-05 21:40:00,
2013-11-05 15:45:00,38.2,37.2,29.98,North,351,11.5,11.5,96,0.10,RA,,0.82,WeatherDisplay:10.37,2013-11-05 21:45:00,
2013-11-05 15:50:00,38.0,36.7,29.99,NNW,333,13.0,13.0,95,0.09,RA,,0.82,WeatherDisplay:10.37,2013-11-05 21:50:00,
2013-11-05 15:55:00,37.9,36.9,29.99,North,5,9.2,9.2,96,0.07,CLR,,0.82,WeatherDisplay:10.37,2013-11-05 21:55:00,
2013-11-05 16:00:00,37.8,36.8,30.00,NNE,33,10.4,10.4,96,0.08,RA,,0.83,WeatherDisplay:10.37,2013-11-05 22:00:00,
2013-11-05 16:05:00,37.7,36.7,30.00,NNW,345,9.2,9.2,96,0.07,RA,,0.83,WeatherDisplay:10.37,2013-11-05 22:05:00,
2013-11-05 16:10:00,37.5,36.5,30.00,NNE,15,9.2,9.2,96,0.06,CLR,,0.83,WeatherDisplay:10.37,2013-11-05 22:10:00,
2013-11-05 16:15:00,37.5,36.5,29.99,North,355,11.5,11.5,96,0.06,CLR,,0.83,WeatherDisplay:10.37,2013-11-05 22:15:00,
2013-11-05 16:20:00,37.5,36.5,29.99,North,350,13.0,13.0,96,0.05,CLR,,0.83,WeatherDisplay:10.37,2013-11-05 22:20:00,
2013-11-05 16:25:00,37.4,36.1,29.99,NNW,348,10.4,10.4,95,0.04,CLR,,0.83,WeatherDisplay:10.37,2013-11-05 22:25:00,
2013-11-05 16:30:00,37.3,36.0,29.99,NW,318,18.4,18.4,95,0.04,RA,,0.84,WeatherDisplay:10.37,2013-11-05 22:30:00,
2013-11-05 16:35:00,37.3,36.3,29.99,NE,39,8.1,8.1,96,0.03,RA,,0.84,WeatherDisplay:10.37,2013-11-05 22:35:00,
2013-11-05 16:40:00,37.1,36.1,29.98,North,360,11.5,11.5,96,0.03,,,0.84,WeatherDisplay:10.37,2013-11-05 22:40:00,
2013-11-05 16:45:00,37.1,36.1,29.99,NW,326,9.2,9.2,96,0.02,CLR,,0.84,WeatherDisplay:10.37,2013-11-05 22:45:00,
2013-11-05 16:50:00,37.0,35.7,29.99,NNW,329,15.0,15.0,95,0.02,CLR,,0.84,WeatherDisplay:10.37,2013-11-05 22:50:00,
2013-11-05 16:55:00,36.9,35.6,29.99,North,360,15.0,15.0,95,0.02,CLR,,0.84,WeatherDisplay:10.37,2013-11-05 22:55:00,
2013-11-05 17:00:00,36.8,35.5,30.00,NNW,332,11.5,11.5,95,0.01,CLR,,0.84,WeatherDisplay:10.37,2013-11-05 23:00:00,
2013-11-05 17:05:00,36.8,35.5,30.00,NNE,24,8.1,8.1,95,0.01,CLR,,0.84,WeatherDisplay:10.37,2013-11-05 23:05:00,
2013-11-05 17:10:00,36.7,35.4,30.01,North,355,11.5,11.5,95,0.01,CLR,,0.84,WeatherDisplay:10.37,2013-11-05 23:10:00,
2013-11-05 17:15:00,36.7,35.4,30.02,NNE,27,11.5,11.5,95,0.02,RA,,0.85,WeatherDisplay:10.37,2013-11-05 23:15:00,
2013-11-05 17:20:00,36.6,35.3,30.02,North,5,13.8,13.8,95,0.02,RA,,0.85,WeatherDisplay:10.37,2013-11-05 23:20:00,
2013-11-05 17:25:00,36.6,35.3,30.01,NNW,331,11.5,11.5,95,0.03,RA,,0.86,WeatherDisplay:10.37,2013-11-05 23:25:00,
2013-11-05 17:30:00,36.5,35.2,30.01,NW,310,13.8,13.8,95,0.02,RA,,0.86,WeatherDisplay:10.37,2013-11-05 23:30:00,
2013-11-05 17:35:00,36.4,35.1,30.02,NE,36,11.5,11.5,95,0.03,RA,,0.87,WeatherDisplay:10.37,2013-11-05 23:35:00,
2013-11-05 17:40:00,36.2,34.9,30.02,North,350,13.8,13.8,95,0.03,RA,,0.87,WeatherDisplay:10.37,2013-11-05 23:40:00,
2013-11-05 17:45:00,35.9,34.6,30.01,NNE,20,19.6,19.6,95,0.03,CLR,,0.87,WeatherDisplay:10.37,2013-11-05 23:45:00,
2013-11-05 17:50:00,35.6,34.3,30.02,NNW,340,9.2,9.2,95,0.03,CLR,,0.87,WeatherDisplay:10.37,2013-11-05 23:50:00,
2013-11-05 17:55:00,35.5,34.2,30.03,NNW,338,11.5,11.5,95,0.03,CLR,,0.87,WeatherDisplay:10.37,2013-11-05 23:55:00,
2013-11-05 18:00:00,35.4,34.4,30.04,NNW,348,11.5,11.5,96,0.03,CLR,,0.87,WeatherDisplay:10.37,2013-11-06 00:00:00,
2013-11-05 18:05:00,35.2,33.9,30.05,North,11,9.2,9.2,95,0.03,CLR,,0.87,WeatherDisplay:10.37,2013-11-06 00:05:00,
2013-11-05 18:10:00,35.1,33.8,30.06,NW,321,11.5,11.5,95,0.03,CLR,,0.87,WeatherDisplay:10.37,2013-11-06 00:10:00,
2013-11-05 18:15:00,34.9,33.9,30.06,North,355,6.9,6.9,96,0.02,CLR,,0.87,WeatherDisplay:10.37,2013-11-06 00:15:00,
2013-11-05 18:20:00,34.8,33.5,30.06,North,355,10.4,10.4,95,0.02,CLR,,0.87,WeatherDisplay:10.37,2013-11-06 00:20:00,
2013-11-05 18:25:00,34.7,33.4,30.06,NW,312,10.4,10.4,95,0.01,CLR,,0.87,WeatherDisplay:10.37,2013-11-06 00:25:00,
2013-11-05 18:30:00,34.6,33.6,30.05,NW,305,11.5,11.5,96,0.01,CLR,,0.87,WeatherDisplay:10.37,2013-11-06 00:30:00,
2013-11-05 18:35:00,34.6,33.6,30.05,NW,321,12.7,12.7,96,0.00,CLR,,0.87,WeatherDisplay:10.37,2013-11-06 00:35:00,
2013-11-05 18:40:00,34.5,33.5,30.06,West,275,9.2,9.2,96,0.00,CLR,,0.87,WeatherDisplay:10.37,2013-11-06 00:40:00,
2013-11-05 18:45:00,34.4,33.4,30.06,NW,313,11.5,11.5,96,0.00,CLR,,0.87,WeatherDisplay:10.37,2013-11-06 00:45:00,
2013-11-05 18:50:00,34.4,33.1,30.07,NW,320,10.4,10.4,95,0.00,CLR,,0.87,WeatherDisplay:10.37,2013-11-06 00:50:00,
2013-11-05 18:55:00,34.3,33.0,30.07,NNE,17,13.8,13.8,95,0.00,CLR,,0.87,WeatherDisplay:10.37,2013-11-06 00:55:00,
2013-11-05 19:00:00,34.3,33.3,30.07,WNW,296,5.8,5.8,96,0.00,CLR,,0.87,WeatherDisplay:10.37,2013-11-06 01:00:00,
2013-11-05 19:05:00,34.2,32.9,30.07,North,5,15.0,15.0,95,0.00,CLR,,0.87,WeatherDisplay:10.37,2013-11-06 01:05:00,
2013-11-05 19:10:00,34.1,32.8,30.08,NNW,332,8.1,8.1,95,0.00,CLR,,0.87,WeatherDisplay:10.37,2013-11-06 01:10:00,
2013-11-05 19:15:00,34.1,32.8,30.09,NNW,336,11.5,11.5,95,0.00,CLR,,0.87,WeatherDisplay:10.37,2013-11-06 01:15:00,
2013-11-05 19:20:00,34.0,32.7,30.08,NW,308,8.1,8.1,95,0.00,CLR,,0.87,WeatherDisplay:10.37,2013-11-06 01:20:00,
2013-11-05 19:25:00,33.9,32.6,30.07,NNW,339,16.1,16.1,95,0.00,CLR,,0.87,WeatherDisplay:10.37,2013-11-06 01:25:00,
2013-11-05 19:30:00,33.9,32.6,30.07,NNW,342,4.6,4.7,95,0.00,CLR,,0.87,WeatherDisplay:10.37,2013-11-06 01:30:00,
2013-11-05 19:35:00,33.9,32.6,30.08,NNW,328,9.2,9.2,95,0.00,CLR,,0.87,WeatherDisplay:10.37,2013-11-06 01:35:00,
2013-11-05 19:40:00,33.8,32.5,30.08,NNW,340,16.1,16.1,95,0.00,CLR,,0.87,WeatherDisplay:10.37,2013-11-06 01:40:00,
2013-11-05 19:45:00,33.7,32.4,30.08,North,355,9.2,9.2,95,0.00,CLR,,0.87,WeatherDisplay:10.37,2013-11-06 01:45:00,
2013-11-05 19:50:00,33.6,32.3,30.08,North,5,11.5,11.5,95,0.00,CLR,,0.87,WeatherDisplay:10.37,2013-11-06 01:50:00,
2013-11-05 19:55:00,33.6,32.3,30.08,WNW,298,11.5,11.5,95,0.00,CLR,,0.87,WeatherDisplay:10.37,2013-11-06 01:55:00,
2013-11-05 20:00:00,33.5,32.2,30.08,NNW,342,15.0,15.0,95,0.00,CLR,,0.87,WeatherDisplay:10.37,2013-11-06 02:00:00,
2013-11-05 20:05:00,33.5,32.2,30.09,NNW,338,9.2,9.2,95,0.00,CLR,,0.87,WeatherDisplay:10.37,2013-11-06 02:05:00,
2013-11-05 20:10:00,33.5,32.2,30.09,NNW,347,11.5,11.5,95,0.00,CLR,,0.87,WeatherDisplay:10.37,2013-11-06 02:10:00,
2013-11-05 20:15:00,33.5,32.2,30.10,NW,323,11.5,11.5,95,0.00,CLR,,0.87,WeatherDisplay:10.37,2013-11-06 02:15:00,
2013-11-05 20:20:00,33.5,32.2,30.10,NW,325,11.5,11.5,95,0.00,CLR,,0.87,WeatherDisplay:10.37,2013-11-06 02:20:00,
2013-11-05 20:25:00,33.5,32.2,30.10,North,355,9.2,9.2,95,0.00,CLR,,0.87,WeatherDisplay:10.37,2013-11-06 02:25:00,
2013-11-05 20:30:00,33.5,32.0,30.10,NNW,330,12.7,12.7,94,0.00,CLR,,0.87,WeatherDisplay:10.37,2013-11-06 02:30:00,
2013-11-05 20:35:00,33.6,32.3,30.10,North,360,11.0,11.0,95,0.00,CLR,,0.87,WeatherDisplay:10.37,2013-11-06 02:35:00,
2013-11-05 20:40:00,33.7,32.2,30.10,NNW,339,11.5,11.5,94,0.00,CLR,,0.87,WeatherDisplay:10.37,2013-11-06 02:40:00,
2013-11-05 20:46:00,33.8,32.3,30.11,NNW,339,12.7,12.7,94,0.00,CLR,,0.87,WeatherDisplay:10.37,2013-11-06 02:46:00,
2013-11-05 20:51:00,34.0,32.5,30.11,NNW,329,9.2,9.2,94,0.00,CLR,,0.87,WeatherDisplay:10.37,2013-11-06 02:51:00,
2013-11-05 20:56:00,34.2,32.7,30.12,NNW,346,11.5,11.5,94,0.00,CLR,,0.87,WeatherDisplay:10.37,2013-11-06 02:56:00,
2013-11-05 21:01:00,34.3,32.8,30.12,North,360,9.2,9.2,94,0.00,CLR,,0.87,WeatherDisplay:10.37,2013-11-06 03:01:00,
2013-11-05 21:06:00,34.4,32.9,30.12,NW,326,11.5,11.5,94,0.00,CLR,,0.87,WeatherDisplay:10.37,2013-11-06 03:06:00,
2013-11-05 21:11:00,34.4,33.1,30.12,NNE,13,11.5,11.5,95,0.00,CLR,,0.87,WeatherDisplay:10.37,2013-11-06 03:11:00,
2013-11-05 21:16:00,34.4,32.9,30.12,North,5,10.4,10.4,94,0.00,CLR,,0.87,WeatherDisplay:10.37,2013-11-06 03:16:00,
2013-11-05 21:21:00,34.5,33.2,30.12,NNW,340,10.4,10.4,95,0.00,CLR,,0.87,WeatherDisplay:10.37,2013-11-06 03:21:00,
2013-11-05 21:26:00,34.4,33.1,30.12,NW,320,11.5,11.5,95,0.00,CLR,,0.87,WeatherDisplay:10.37,2013-11-06 03:26:00,
2013-11-05 21:31:00,34.4,33.1,30.12,North,355,9.2,9.2,95,0.00,CLR,,0.87,WeatherDisplay:10.37,2013-11-06 03:31:00,
2013-11-05 21:36:00,34.4,32.9,30.12,West,261,12.7,12.7,94,0.00,CLR,,0.87,WeatherDisplay:10.37,2013-11-06 03:36:00,
2013-11-05 21:41:00,34.3,32.8,30.12,NNW,333,11.5,11.5,94,0.00,CLR,,0.87,WeatherDisplay:10.37,2013-11-06 03:41:00,
2013-11-05 21:46:00,34.2,32.7,30.13,NE,36,11.5,11.5,94,0.00,CLR,,0.87,WeatherDisplay:10.37,2013-11-06 03:46:00,
2013-11-05 21:51:00,34.2,32.7,30.13,NNW,335,13.8,13.8,94,0.00,CLR,,0.87,WeatherDisplay:10.37,2013-11-06 03:51:00,
2013-11-05 21:56:00,34.1,32.6,30.13,NNW,329,9.2,9.2,94,0.00,CLR,,0.87,WeatherDisplay:10.37,2013-11-06 03:56:00,
2013-11-05 22:01:00,34.0,32.5,30.14,NW,312,10.4,10.4,94,0.00,CLR,,0.87,WeatherDisplay:10.37,2013-11-06 04:01:00,
2013-11-05 22:06:00,34.1,32.6,30.15,WNW,284,9.2,9.2,94,0.00,CLR,,0.87,WeatherDisplay:10.37,2013-11-06 04:06:00,
2013-11-05 22:11:00,34.1,32.6,30.15,NE,36,9.2,9.2,94,0.00,CLR,,0.87,WeatherDisplay:10.37,2013-11-06 04:11:00,
2013-11-05 22:16:00,34.0,32.5,30.16,NW,325,5.0,5.0,94,0.00,CLR,,0.87,WeatherDisplay:10.37,2013-11-06 04:16:00,
2013-11-05 22:21:00,33.9,32.4,30.16,NW,323,10.0,10.0,94,0.00,CLR,,0.87,WeatherDisplay:10.37,2013-11-06 04:21:00,
2013-11-05 22:26:00,33.9,32.4,30.16,NNW,336,8.0,8.0,94,0.00,CLR,,0.87,WeatherDisplay:10.37,2013-11-06 04:26:00,
2013-11-05 22:31:00,33.9,32.4,30.16,NNW,336,5.8,5.8,94,0.00,CLR,,0.87,WeatherDisplay:10.37,2013-11-06 04:31:00,
2013-11-05 22:36:00,33.9,32.4,30.16,NNW,344,6.0,6.0,94,0.00,CLR,,0.87,WeatherDisplay:10.37,2013-11-06 04:36:00,
2013-11-05 22:41:00,33.9,32.4,30.16,NNW,335,8.1,8.1,94,0.00,CLR,,0.87,WeatherDisplay:10.37,2013-11-06 04:41:00,
2013-11-05 22:46:00,33.9,32.4,30.16,NW,316,8.1,8.1,94,0.00,CLR,,0.87,WeatherDisplay:10.37,2013-11-06 04:46:00,
2013-11-05 22:51:00,33.8,32.3,30.16,North,360,8.1,8.1,94,0.00,CLR,,0.87,WeatherDisplay:10.37,2013-11-06 04:51:00,
2013-11-05 22:56:00,33.8,32.3,30.16,NNW,327,9.2,9.2,94,0.00,CLR,,0.87,WeatherDisplay:10.37,2013-11-06 04:56:00,
2013-11-05 23:01:00,33.7,32.4,30.16,West,277,5.8,5.8,95,0.00,CLR,,0.87,WeatherDisplay:10.37,2013-11-06 05:01:00,
2013-11-05 23:07:00,33.6,32.3,30.17,NNW,332,4.6,4.6,95,0.00,CLR,,0.87,WeatherDisplay:10.37,2013-11-06 05:07:00,
2013-11-05 23:12:00,33.6,32.3,30.17,West,266,10.4,10.4,95,0.00,CLR,,0.87,WeatherDisplay:10.37,2013-11-06 05:12:00,
2013-11-05 23:17:00,33.6,32.3,30.18,West,268,6.9,6.9,95,0.00,CLR,,0.87,WeatherDisplay:10.37,2013-11-06 05:17:00,
2013-11-05 23:22:00,33.6,32.3,30.18,NNW,327,3.5,3.5,95,0.00,CLR,,0.87,WeatherDisplay:10.37,2013-11-06 05:22:00,
2013-11-05 23:27:00,33.6,32.3,30.19,NW,311,10.4,10.4,95,0.00,CLR,,0.87,WeatherDisplay:10.37,2013-11-06 05:27:00,
2013-11-05 23:32:00,33.7,32.4,30.19,NW,325,3.5,3.5,95,0.00,CLR,,0.87,WeatherDisplay:10.37,2013-11-06 05:32:00,
2013-11-05 23:37:00,33.7,32.4,30.19,NW,314,8.1,8.1,95,0.00,CLR,,0.87,WeatherDisplay:10.37,2013-11-06 05:37:00,
2013-11-05 23:42:00,33.8,32.5,30.19,NW,325,9.2,9.2,95,0.00,CLR,,0.87,WeatherDisplay:10.37,2013-11-06 05:42:00,
2013-11-05 23:47:00,33.8,32.5,30.19,NW,323,4.0,4.0,95,0.00,CLR,,0.87,WeatherDisplay:10.37,2013-11-06 05:47:00,
2013-11-05 23:52:00,33.8,32.5,30.19,WNW,283,9.2,9.2,95,0.00,CLR,,0.87,WeatherDisplay:10.37,2013-11-06 05:52:00,
2013-11-05 23:57:00,33.7,32.2,30.19,NNW,329,5.8,5.8,94,0.00,CLR,,0.87,WeatherDisplay:10.37,2013-11-06 05:57:00,